This is the latest recevied weather packets stored in our database for station/object EA5GTE-12. If no packets are shown the sender has not sent any weather packets the latest 1 day(s).
| Time | Temp. | Humidity | Pressure | Rain* | Wind** | Luminosity | Snow |
|---|---|---|---|---|---|---|---|
| 1778048555 | 15° C | 62% | 935.3 hPa | - | - | - | - |
| 1778044950 | 7.78° C | 100% | 935.2 hPa | - | - | - | - |
| 1778044050 | 5° C | 100% | 935.1 hPa | - | - | - | - |
| 1778043150 | 5° C | 100% | 935.1 hPa | - | - | - | - |
| 1778042250 | 5° C | 100% | 935.2 hPa | - | - | - | - |
| 1778041350 | 4.44° C | 100% | 935.2 hPa | - | - | - | - |
| 1778040450 | 5.56° C | 100% | 935 hPa | - | - | - | - |
| 1778039550 | 5.56° C | 100% | 935.1 hPa | - | - | - | - |
| 1778038650 | 6.11° C | 100% | 934.9 hPa | - | - | - | - |
| 1778037784 | 5.56° C | 100% | 935.1 hPa | - | - | - | - |
| 1778037750 | 5.56° C | 100% | 935.1 hPa | - | - | - | - |
| 1778036850 | 6.67° C | 100% | 935.1 hPa | - | - | - | - |
| 1778035949 | 6.67° C | 100% | 935.2 hPa | - | - | - | - |
| 1778035048 | 6.11° C | 100% | 935.3 hPa | - | - | - | - |
| 1778034148 | 6.67° C | 100% | 935.3 hPa | - | - | - | - |
| 1778033248 | 6.11° C | 100% | 935 hPa | - | - | - | - |
| 1778032348 | 6.11° C | 100% | 935 hPa | - | - | - | - |
| 1778031448 | 6.11° C | 100% | 935 hPa | - | - | - | - |
| 1778030547 | 6.67° C | 100% | 935.1 hPa | - | - | - | - |
| 1778028751 | 7.22° C | 100% | 935.1 hPa | - | - | - | - |
| 1778027851 | 7.22° C | 100% | 935.3 hPa | - | - | - | - |
* Rain since midnight (hover to see other rain measurements)
** Current wind speed in m/s (hover to see current wind gust speed)